Погода в Куземкине

Россия / Рязанская область     54°44′09″N   41°10′49″E
темп.,
°C
ветер,
м/с
пор.,
м/с
влажн.,
%
обл.,
%
осадки,
мм/ч
давл.,
гПа
погр.,
м
22 апреля, чт
чт2200:00+4ююз4989100 0.0 1015415
03:00+5ююз3892100 0.0 1015461
06:00+5ююз279246 0.1 1017366
09:00+8ююз457313 0.1 1018734
12:00+11юз576092 0.2 10181490
15:00+12юз675659 0.4 10181722
18:00+10ююз486822 0.1 1019377
21:00+7ююв3108311 0.1 1020188
23 апреля, пт
пт2300:00+7ю311845 0.0 1019211
03:00+6ю3108626 0.0 1019186
06:00+7ю4128534 0.1 1019278
09:00+12ю596690 0.3 1019507
12:00+16ю6843100 0.0 10182558
15:00+16ю6846100 0.1 10172196
18:00+13ююв386148 0.3 1016347
21:00+10ююв613765 0.3 1015450
24 апреля, сб
сб2400:00+8ююв412885 0.0 1013375
03:00+8юв5139028 0.1 1011412
06:00+7юв6149078 0.1 1009503
09:00+10ю61081100 0.8 10071122
12:00+3зюз5996100 1.8 1009513
15:00+6з3681100 2.6 1008821
18:00+7зсз367565 0.3 1008862
21:00+3зюз22892 0.3 100819
25 апреля, вс
вс2500:00+2зюз35907 0.1 1008100
03:00+1зюз379361 0.1 1009161
06:00+2з4989100 0.0 1010419
09:00+5з58665 0.0 1011878
12:00+8зюз7952100 0.5 10122055
15:00+9зюз81243100 0.9 10122859
18:00+6зюз6115681 0.3 10131463
21:00+3юз49755 0.3 1014236
26 апреля, пн
пн2600:00+1юз36855 0.0 1015125
03:000ююз369325 0.0 1015129
06:00+1юз369237 0.0 1015220
09:00+6юз4565100 0.0 1015926
12:00+8юз4645100 0.0 10132113
15:00+9юз4642100 0.1 10122068
18:00+7ю3561100 0.1 1010344
21:00+4ю4682100 0.2 1010240